Total_Precipitation_Accumulation
2.17 2.23 2.23 2.13 2.12 2.19 2.18 2.05 2.02 1.99 1.86 1.80 1.73 1.64 1.58 1.57 1.65 1.78 1.82 1.89 1.96 2.03 2.13 2.17 2.19 2.19 2.28 2.28 2.33 2.38 2.54 2.68 2.63 2.31 2.10 2.00 1.93 1.79 1.83 1.84 1.81 1.74 1.55
1.92 1.87 1.88 1.92 1.89 1.91 1.89 1.79 1.78 1.85 1.78 1.71 1.62 1.52 1.41 1.39 1.46 1.49 1.52 1.61 1.75 1.78 1.83 1.90 1.86 1.90 1.99 1.97 2.04 2.09 2.19 2.35 2.38 2.36 2.26 2.18 2.05 1.89 1.91 1.90 1.61 1.41 1.38
1.87 1.82 1.77 1.80 1.83 1.82 1.76 1.74 1.70 1.76 1.75 1.65 1.53 1.46 1.41 1.36 1.37 1.40 1.46 1.47 1.53 1.60 1.62 1.67 1.69 1.75 1.69 1.63 1.70 1.80 1.86 1.94 2.17 2.20 2.10 2.06 1.89 1.74 1.90 1.80 1.65 1.73 1.35
1.80 1.76 1.78 1.84 1.91 1.88 1.87 1.86 1.80 1.72 1.65 1.59 1.55 1.46 1.40 1.35 1.36 1.38 1.38 1.46 1.48 1.49 1.48 1.50 1.46 1.48 1.51 1.56 1.57 1.74 1.83 1.98 2.07 2.07 2.00 1.94 1.85 1.75 1.90 1.89 1.88 1.81 1.50
1.67 1.71 1.78 1.86 1.89 1.81 1.84 1.82 1.78 1.76 1.63 1.59 1.54 1.47 1.34 1.21 1.16 1.23 1.28 1.34 1.45 1.48 1.47 1.38 1.33 1.39 1.45 1.46 1.40 1.56 1.74 1.90 1.90 1.90 1.88 1.90 1.82 1.88 1.82 1.74 1.81 1.86 1.71
1.78 1.75 1.73 1.74 1.68 1.65 1.67 1.69 1.61 1.58 1.59 1.55 1.44 1.35 1.28 1.14 1.19 1.20 1.26 1.36 1.44 1.45 1.40 1.36 1.29 1.26 1.26 1.27 1.23 1.34 1.56 1.67 1.77 1.84 1.84 1.86 1.85 1.95 1.96 1.91 1.92 1.96 1.92
1.71 1.71 1.62 1.54 1.48 1.52 1.51 1.53 1.56 1.60 1.58 1.48 1.38 1.35 1.34 1.30 1.16 1.04 1.06 1.17 1.31 1.31 1.30 1.34 1.17 1.05 1.17 1.16 1.18 1.19 1.23 1.27 1.40 1.63 1.81 1.87 2.01 2.15 2.25 2.15 2.08 2.04 2.02
1.68 1.61 1.48 1.38 1.35 1.45 1.42 1.44 1.52 1.52 1.48 1.46 1.43 1.46 1.49 1.27 1.03 0.86 0.96 1.16 1.28 1.18 1.15 1.21 1.27 1.27 1.19 1.18 1.19 1.23 1.24 1.22 1.23 1.30 1.57 1.69 1.74 1.96 2.20 2.23 2.23 2.13 2.09
1.62 1.52 1.36 1.28 1.32 1.35 1.29 1.31 1.40 1.39 1.37 1.39 1.41 1.46 1.44 1.31 1.09 0.90 0.94 1.11 1.23 1.21 1.17 1.13 1.13 1.13 1.12 1.16 1.25 1.42 1.47 1.43 1.16 1.20 1.33 1.42 1.47 1.61 1.78 2.02 2.25 2.35 2.22
1.64 1.54 1.40 1.37 1.37 1.37 1.37 1.35 1.31 1.30 1.27 1.27 1.32 1.43 1.39 1.28 1.08 0.87 0.87 0.94 1.10 1.26 1.38 1.35 1.26 1.15 1.09 1.13 1.28 1.49 1.56 1.54 1.53 1.63 1.73 1.71 1.65 1.68 1.66 1.86 2.22 2.38 2.31
1.64 1.60 1.59 1.59 1.52 1.48 1.49 1.46 1.40 1.29 1.28 1.32 1.33 1.39 1.43 1.24 1.01 0.86 0.87 0.90 1.04 1.21 1.32 1.37 1.30 1.20 1.14 1.17 1.27 1.44 1.54 1.56 1.80 2.16 2.16 1.98 1.86 1.78 1.67 1.71 1.95 2.17 2.28
1.73 1.72 1.69 1.61 1.53 1.50 1.57 1.50 1.46 1.50 1.45 1.44 1.38 1.39 1.34 1.16 0.93 0.84 0.85 0.87 0.92 1.06 1.20 1.21 1.24 1.20 1.14 1.17 1.19 1.33 1.49 1.66 1.95 2.31 2.27 2.04 1.84 1.74 1.68 1.61 1.68 1.85 2.05
1.84 1.80 1.74 1.65 1.59 1.58 1.60 1.49 1.40 1.51 1.47 1.36 1.28 1.29 1.22 1.10 0.95 0.84 0.83 0.84 0.84 0.87 0.96 1.03 1.06 1.05 1.09 1.21 1.28 1.35 1.48 1.74 2.01 2.14 2.05 1.86 1.74 1.70 1.68 1.66 1.65 1.78 1.88
1.75 1.72 1.73 1.70 1.58 1.48 1.44 1.38 1.34 1.36 1.41 1.39 1.30 1.23 1.12 1.02 0.89 0.78 0.77 0.78 0.77 0.76 0.82 0.94 1.06 1.14 1.21 1.34 1.53 1.62 1.64 1.74 1.83 1.88 1.80 1.70 1.62 1.62 1.61 1.52 1.59 1.73 1.86
1.69 1.55 1.53 1.48 1.42 1.39 1.31 1.23 1.20 1.13 1.14 1.21 1.16 1.04 0.94 0.88 0.80 0.83 0.81 0.79 0.78 0.79 0.82 0.93 1.14 1.30 1.40 1.43 1.50 1.60 1.65 1.62 1.59 1.54 1.54 1.53 1.54 1.58 1.51 1.40 1.48 1.58 1.71
1.58 1.50 1.46 1.35 1.29 1.19 1.15 1.14 1.16 1.07 0.99 0.96 1.00 0.91 0.79 0.77 0.77 0.75 0.73 0.73 0.80 0.87 0.91 1.04 1.18 1.28 1.36 1.43 1.48 1.47 1.46 1.43 1.38 1.36 1.35 1.30 1.32 1.35 1.40 1.42 1.49 1.57 1.62
1.50 1.49 1.41 1.35 1.30 1.22 1.16 1.13 1.18 1.11 1.03 0.99 0.96 0.90 0.80 0.76 0.73 0.70 0.69 0.68 0.74 0.85 0.94 1.13 1.23 1.26 1.36 1.47 1.46 1.41 1.36 1.29 1.26 1.22 1.22 1.19 1.15 1.19 1.29 1.37 1.47 1.57 1.59
1.28 1.33 1.35 1.28 1.22 1.24 1.26 1.22 1.19 1.25 1.21 1.08 0.94 0.86 0.82 0.80 0.78 0.74 0.73 0.72 0.80 0.89 1.06 1.25 1.30 1.30 1.33 1.35 1.37 1.38 1.36 1.28 1.23 1.23 1.22 1.20 1.18 1.18 1.25 1.31 1.37 1.42 1.46
1.23 1.24 1.23 1.26 1.21 1.17 1.21 1.22 1.20 1.23 1.28 1.23 1.08 0.95 0.94 0.93 0.93 0.93 0.85 0.81 0.88 0.94 1.02 1.09 1.16 1.23 1.27 1.26 1.28 1.28 1.30 1.32 1.28 1.29 1.29 1.26 1.24 1.24 1.24 1.24 1.23 1.20 1.23
1.01 1.07 1.12 1.14 1.17 1.15 1.14 1.16 1.19 1.25 1.30 1.27 1.15 1.07 1.10 1.11 1.07 1.04 0.95 0.90 0.93 0.96 1.00 1.08 1.13 1.14 1.17 1.19 1.20 1.20 1.20 1.22 1.22 1.20 1.17 1.18 1.17 1.18 1.18 1.16 1.16 1.16 1.16
0.84 0.83 0.84 0.84 0.88 0.90 0.94 0.98 1.02 1.12 1.19 1.16 1.06 1.05 1.18 1.15 1.17 1.11 1.04 1.02 1.05 1.04 1.06 1.12 1.11 1.08 1.07 1.10 1.19 1.24 1.26 1.24 1.18 1.15 1.12 1.08 1.05 1.05 1.02 1.00 0.99 1.02 1.07
0.73 0.67 0.62 0.62 0.68 0.76 0.79 0.81 0.86 0.89 0.95 0.96 0.92 0.91 1.03 1.01 1.04 1.01 0.99 1.01 1.03 1.04 1.07 1.15 1.15 1.10 1.08 1.09 1.19 1.25 1.28 1.26 1.20 1.17 1.13 1.09 1.02 0.98 0.99 0.97 0.96 0.99 1.05
0.67 0.63 0.57 0.56 0.60 0.72 0.79 0.81 0.85 0.84 0.85 0.87 0.86 0.84 0.86 0.94 0.99 1.03 1.05 1.04 1.01 0.96 0.93 0.99 1.06 1.07 1.08 1.06 1.05 1.04 1.11 1.16 1.15 1.13 1.18 1.16 1.07 0.99 0.99 0.95 0.93 0.94 0.98
0.65 0.63 0.62 0.58 0.62 0.71 0.74 0.73 0.73 0.74 0.76 0.82 0.77 0.73 0.76 0.81 0.86 0.89 0.94 0.99 1.00 0.97 0.89 0.90 0.94 0.96 0.97 1.00 0.98 0.91 0.90 0.98 1.01 1.03 1.12 1.12 1.05 1.00 0.99 0.94 0.92 0.93 0.95
0.60 0.64 0.66 0.63 0.64 0.70 0.74 0.73 0.73 0.73 0.77 0.84 0.80 0.75 0.75 0.71 0.70 0.69 0.74 0.79 0.79 0.78 0.73 0.68 0.68 0.69 0.73 0.76 0.76 0.78 0.87 0.88 0.86 0.91 0.96 0.98 0.93 0.94 0.96 0.91 0.89 0.91 0.95
0.58 0.64 0.70 0.73 0.76 0.76 0.78 0.79 0.79 0.77 0.79 0.80 0.80 0.83 0.82 0.75 0.69 0.67 0.68 0.69 0.68 0.64 0.60 0.60 0.59 0.58 0.57 0.55 0.60 0.68 0.71 0.67 0.68 0.74 0.81 0.87 0.86 0.88 0.93 0.95 0.89 0.92 0.92